Regional Weather Roundup
Issued by NWS

Home | Current Version | Previous Version | Graphics & Text | Print | Product List | Glossary On
Versions: 1 2 3 4 5 6 7 8 9 10 11 12 13 14 15 16 17 18 19 20 21 22 23 24 25 26 27 28 29 30 31 32 33 34 35 36 37 38 39 40 41 42 43 44 45 46 47 48 49 50
000
ASUS43 KMPX 291501
RWRMN
WEATHER ROUNDUP FOR MINNESOTA
NATIONAL WEATHER SERVICE TWIN CITIES/CHANHASSEN MN
1000 AM CDT MON AUG 29 2016


NOTE: "FAIR" INDICATES FEW OR NO CLOUDS BELOW 12,000 FEET WITH NO
SIGNIFICANT WEATHER AND/OR OBSTRUCTIONS TO VISIBILITY. N/A MEANS
CURRENT SKY AND/OR WEATHER CONDITIONS ARE NOT AVAILABLE.

MNZ060>063-068>070-291600-
   Twin Cities Metro

CITY           SKY/WX    TMP DP  RH WIND       PRES   REMARKS
TWIN CITIES    CLOUDY    75  67  76 NE9       30.24S
ST PAUL        CLOUDY    75  69  81 CALM      30.25R
CRYSTAL        CLOUDY    73  67  81 E8        30.24R
BLAINE         PTSUNNY   75  73  94 E9        30.25R
LAKEVILLE      CLOUDY    73  70  88 CALM      30.24S
EDEN PRAIRIE   CLOUDY    77  68  73 VRB3      30.24R
LAKEVILLE      CLOUDY    73  70  88 CALM      30.24S
SOUTH ST PAUL  CLOUDY    75  69  83 NE3       30.25R
LAKE ELMO      FAIR      77  72  83 NE6       30.27R
$$
MNZ001>005-007-008-013>017-022>024-027-028-291600-
   Northwest Minnesota

CITY           SKY/WX    TMP DP  RH WIND       PRES   REMARKS
BEMIDJI        SUNNY     69  64  83 SW8       30.14R
HALLOCK        MOSUNNY   68  64  88 NW12      30.13R
ROSEAU         SUNNY     73  66  78 W8        30.10S
THIEF RVR FALL CLOUDY    70  66  87 SW5       30.13R
CROOKSTON      CLOUDY    70  66  88 NW7       30.14R
FOSSTON        MOSUNNY   70  64  83 SW9       30.15S
DETROIT LAKES  SUNNY     72  64  78 S10       30.14R
MOORHEAD       SUNNY     75  68  78 S6        30.13R
PARK RAPIDS    CLOUDY    70  63  78 S14       30.13F
MAHNOMEN       PTSUNNY   71  64  78 S9        30.14R
$$
MNZ006-009>011-018-025>026-291600-
   North Central Minnesota

CITY           SKY/WX    TMP DP  RH WIND       PRES   REMARKS
BAUDETTE       CLOUDY    67  64  90 SW8       30.09R
FLAG ISLAND    CLOUDY    66  64  94 CALM      30.08S FOG
INTL FALLS     CLOUDY    68  63  84 SW8       30.10F
WASKISH          N/A     66  64  94 S3        30.14R
BIG FORK       CLOUDY    66  63  88 S5        30.12F
LONGVILLE      CLOUDY    64  63  94 CALM      30.13F
GRAND RAPIDS   CLOUDY    64  62  93 S5        30.15F
CRANE LAKE     CLOUDY    64  63  94 S5        30.13S
ORR            CLOUDY    66  61  82 CALM      30.10F
COOK           CLOUDY    64  63  94 CALM      30.14S
WALKER         FAIR      68  62  83 S9        30.12S
$$
MNZ012-019>021-037-291600-
   Northeast Minnesota

CITY           SKY/WX    TMP DP  RH WIND       PRES   REMARKS
DULUTH         CLOUDY    67  64  90 N6        30.14S
ELY            CLOUDY    66  63  88 SW5       30.14R
HIBBING        CLOUDY    63  62  97 CALM      30.15S
EVELETH        CLOUDY    64  62  92 CALM      30.16F
DULUTH HARBOR  CLOUDY    70  64  83 CALM      30.13S
TWO HARBORS    CLOUDY    72  66  83 CALM      30.12S
SILVER BAY     CLOUDY    70  64  83 CALM      30.11F
G MARAIS ARPRT CLOUDY    68  59  73 W3        30.17S
$$
MNZ029>031-032-039>041-046>048-054>057-064-291600-
   West Central Minnesota

CITY           SKY/WX    TMP DP  RH WIND       PRES   REMARKS
FERGUS FALLS   SUNNY     75  66  73 S12       30.14S
WHEATON        SUNNY     79  70  73 SE13G20   30.15S
MORRIS         MOSUNNY   75  64  69 S16       30.14S
ALEXANDRIA     CLOUDY    66  62  87 SE8       30.17R
ELBOW LAKE     FAIR      74  67  77 SE10      30.15R
WADENA         CLOUDY    66  63  88 S9        30.14F
GLENWOOD       CLOUDY    66  63  88 SE9       30.15F THUNDER
APPLETON       MOSUNNY   77  66  69 SE18G24   30.16S
BENSON         PTSUNNY   75  63  64 S17G23    30.16F
ORTONVILLE     MOSUNNY   73  66  78 SE12G20   30.16R
MADISON        MOSUNNY   75  66  73 SE17G23   30.17S
WILLMAR        FAIR      75  70  83 E15G23    30.21F
$$
MNZ033>034-036-042>043-049>051-058-059-291600-
   Central Minnesota

CITY           SKY/WX    TMP DP  RH WIND       PRES   REMARKS
ST CLOUD       CLOUDY    72  65  78 SE15G23   30.18F
SAUK CENTRE    FAIR      67  63  87 SE10      30.14F
PAYNESVILLE    CLOUDY    74  62  65 SE17G24   30.19F
AITKIN         CLOUDY    70  63  78 CALM      30.12F
PINE RIVER     CLOUDY    64  64 100 S5        30.17F
BRAINERD       CLOUDY    67  62  84 SW8       30.15S
STAPLES        CLOUDY    63  63 100 S9        30.16S
LONG PRAIRIE   FAIR      63  61  94 CALM      30.16F
LITTLE FALLS   CLOUDY    64  61  88 SW3       30.17R
LITCHFIELD     CLOUDY    75  70  83 E17G23    30.22F
BUFFALO        MOSUNNY   73  66  79 E15       30.23F
MAPLE LAKE     CLOUDY    74  68  81 SE9G18    30.21F
HUTCHINSON     CLOUDY    73  69  89 E10       30.24S
$$
MNZ037-044-045-052-053-291600-
   East Central Minnesota

CITY           SKY/WX    TMP DP  RH WIND       PRES   REMARKS
PRINCETON      MOSUNNY   75  64  69 SE16      30.17F
MORA           LGT RAIN  64  63  94 S13G20    30.17F
CAMBRIDGE      MOSUNNY   73  63  68 SE8       30.19F
RUSH CITY      RAIN      70  66  86 S9        30.21F
MOOSE LAKE     PTSUNNY   66  61  82 W5        30.13R
HINCKLEY       FAIR      66  64  94 SW16      30.16F
CLOQUET        CLOUDY    64  63  94 W3        30.14S
MCGREGOR       CLOUDY    66  63  88 CALM      30.14F
$$
MNZ071>073-080-081-089-090-097-098-291600-
   Southwest Minnesota

CITY           SKY/WX    TMP DP  RH WIND       PRES   REMARKS
MONTEVIDEO     MOSUNNY   75  68  78 SE17G23   30.21S
GRANITE FALLS  SUNNY     75  68  77 E12       30.22S
CANBY          PTSUNNY   74  68  82 E12       30.20R
MARSHALL       PTSUNNY   72  67  84 E14       30.21R
REDWOOD FALLS  MOSUNNY   72  66  81 SE8       30.21R
OLIVIA         CLOUDY    72  66  83 E9        30.21F
PIPESTONE      SUNNY     72  66  83 S8        30.19R
WINDOM         MOSUNNY   75  66  73 S6        30.22R
WORTHINGTON    MOSUNNY   72  67  84 S3        30.22R
JACKSON          N/A     72  64  78 S3        30.23R
TRACY          MOSUNNY   76  69  78 NE5       30.22R
SLAYTON        MOSUNNY   72  66  83 S7        30.22R
$$
MNZ065>067-074>077-082>085-091>093-291600-
   South Central Minnesota

CITY           SKY/WX    TMP DP  RH WIND       PRES   REMARKS
MANKATO          N/A    N/A N/A N/A MISG        N/A
NEW ULM          N/A     70  66  88 E6        30.23R
ST JAMES       PTSUNNY   68  63  83 SE5       30.23R
FAIRMONT       CLOUDY    73  69  87 SE5       30.23R
GLENCOE        CLOUDY    75  70  86 NE6       30.24R
FARIBAULT      CLOUDY    73  70  88 CALM      30.25R
OWATONNA       CLOUDY    72  70  94 SE3       30.25R FOG
WASECA         CLOUDY    72  70  94 E5        30.25R FOG
ALBERT LEA     CLOUDY    72  70  94 S3        30.25R FOG
$$
MNZ078>079-086>088-094>096-291600-
   Southeast Minnesota

CITY           SKY/WX    TMP DP  RH WIND       PRES   REMARKS
ROCHESTER      MOSUNNY   75  70  84 S5        30.27R
RED WING       CLOUDY    75  70  83 S3        30.24R
DODGE CENTER   CLOUDY    73  70  88 CALM      30.26R FOG
WINONA         PTSUNNY   73  68  83 CALM      30.24S
AUSTIN         MOSUNNY   73  70  88 S5        30.25R
PRESTON        SUNNY     74  68  82 S5        30.27R
$$
ABBREVIATIONS USED IN REMARKS
   TC - TEMPERATURES IN CELSIUS
  WCI - WIND CHILL INDEX
   HX - HEAT INDEX
  VSB - VISIBILITY
$$




USA.gov is the U.S. government's official web portal to all federal, state and local government web resources and services.